SCP
1 1 1 1 0 0 0 0 0 0 0 0 0 0 0 -0 -0 -0 -0 -0 -0 -0 -0 -0 -0 0 0 0 -0 0 0 0 0 0 0 0 0 0
0 0 0 0 0 0 0 0 0 0 0 0 -0 -0 0 0 -0 -0 -0 -0 -0 -0 0 0 0 0 0 0 0 0 0 0 0 0 0 0 0 0
0 0 0 0 0 0 0 0 0 0 0 0 -0 0 -0 0 0 0 0 0 0 0 0 0 0 0 0 0 0 0 0 0 0 0 0 0 0 0
0 0 0 0 0 0 0 0 0 0 0 0 -0 -0 -0 -0 0 0 0 0 0 0 0 0 0 0 0 0 0 0 0 0 0 0 0 0 0 0
0 0 0 0 0 0 0 0 0 0 0 0 -0 0 0 -0 0 0 -0 -0 0 0 0 0 0 0 0 0 0 0 0 0 0 0 0 0 0 0
0 0 0 0 0 0 0 0 0 0 0 0 0 -0 -0 0 0 0 0 0 0 0 0 0 0 0 0 0 0 0 0 0 0 0 0 0 0 0
0 0 0 0 0 0 0 0 0 0 0 0 -0 -0 -0 0 0 0 0 0 0 0 0 0 0 0 0 0 -0 -0 0 0 -0 0 0 0 0 0
0 0 0 0 0 0 0 0 0 0 0 0 0 -0 0 0 0 0 0 0 -0 0 -0 0 0 0 0 0 0 -0 -0 -0 0 0 0 0 0 0
0 0 0 0 0 0 0 0 0 0 0 0 0 0 0 0 0 0 0 0 0 0 -0 -0 0 0 0 0 0 0 0 0 0 0 0 0 0 0
0 0 0 0 0 0 0 0 0 0 0 0 0 0 0 0 0 0 0 0 0 0 0 -0 0 0 0 0 0 0 0 0 0 0 0 0 0 0
0 0 0 0 0 0 0 0 0 0 0 0 0 0 -0 -0 0 0 0 0 -0 -0 0 0 -0 0 0 0 0 0 0 0 0 0 0 0 0 0
0 0 0 0 0 0 0 0 0 0 0 0 0 0 0 0 0 0 0 0 0 0 0 0 0 0 0 0 0 0 0 0 0 0 0 0 0 0
0 0 0 0 0 0 0 0 0 0 0 0 0 0 0 0 0 0 0 0 0 0 0 0 0 0 0 0 0 0 0 0 0 0 0 0 0 0
0 0 0 0 0 0 0 0 0 0 0 0 0 0 0 0 0 0 0 0 0 0 0 0 0 0 0 0 0 0 0 0 0 0 0 0 0 0
0 0 0 0 0 0 0 0 0 0 0 0 0 0 0 0 0 0 0 0 0 0 0 0 0 0 0 0 -0 0 0 0 -0 0 0 0 0 0
0 0 0 0 0 0 0 0 0 0 0 0 0 0 0 0 0 0 0 0 0 0 0 0 0 0 0 0 -0 0 0 0 0 0 0 0 0 0
0 0 0 0 0 0 0 0 0 0 0 0 0 0 0 0 0 0 0 0 0 0 0 0 0 0 0 0 0 0 0 0 0 0 0 0 0 0
0 0 0 0 0 0 0 0 0 0 0 0 0 0 0 0 0 0 0 0 0 0 0 0 0 0 0 0 0 0 0 0 0 0 0 0 0 0
0 0 0 0 0 0 0 0 0 0 0 0 0 0 0 0 0 0 0 0 0 0 0 0 0 0 0 0 0 0 -0 -0 -0 0 0 0 0 0
0 0 0 0 0 0 0 0 0 0 0 0 0 0 0 0 0 0 0 0 0 0 0 0 -0 0 0 0 0 -0 0 -0 -0 0 0 0 0 0
0 0 0 0 0 0 0 0 0 0 0 0 0 0 0 0 0 0 0 0 0 0 -0 -0 -0 0 0 0 0 -0 -0 0 0 0 0 0 0 0
0 0 0 0 0 0 0 0 0 0 0 0 0 0 0 0 0 0 0 0 0 0 0 0 -0 0 0 -0 0 -0 -0 0 0 0 -0 -0 0 0
0 0 0 0 0 0 0 0 0 0 0 0 0 0 0 0 0 0 0 0 0 0 0 -0 -0 -0 0 -0 -0 0 -0 -0 0 0 -0 -0 -0 -0
Wind_Speed_500mb
33 37 42 42 45 48 44 44 55 60 63 43 46 52 51 61 67 70 66 63 65 71 77 78 70 63 63 61 58 55 57 55 55 53 57 61 63 65
42 46 47 45 44 45 46 53 57 51 65 66 67 68 66 64 63 63 64 70 71 67 55 52 47 47 48 55 57 52 55 58 55 55 52 55 61 63
42 48 44 46 49 52 53 53 51 55 60 73 70 63 70 67 61 55 51 54 53 52 52 43 36 40 44 50 53 49 46 52 60 60 59 58 59 62
48 40 36 40 47 51 57 61 60 53 53 71 73 78 70 65 60 57 55 51 55 48 52 50 44 46 38 34 34 43 47 43 41 46 51 53 58 60
32 32 40 50 56 57 54 60 63 65 69 68 69 66 64 60 59 52 55 57 48 55 52 48 43 37 38 36 36 35 37 38 41 44 45 48 50 56
26 30 39 47 51 58 59 62 63 61 59 61 61 67 70 63 53 54 54 49 53 47 41 42 39 39 40 41 42 45 44 43 39 43 46 46 54 57
23 30 40 45 46 48 57 59 58 57 53 49 53 59 60 57 50 45 52 54 51 51 49 52 55 54 53 57 63 64 65 55 57 47 45 47 46 48
31 38 38 46 47 42 44 48 45 42 37 38 46 54 45 39 40 44 46 54 62 53 57 66 60 61 63 64 77 90 93 87 77 70 62 47 50 49
33 36 41 48 51 53 50 47 40 29 27 34 42 44 41 41 44 48 42 50 56 62 68 77 73 75 81 78 81 78 75 71 66 78 74 70 59 51
35 37 39 44 60 58 54 41 32 34 33 33 34 33 33 37 42 44 46 53 61 69 73 70 77 89 86 70 65 67 64 60 54 63 74 79 71 59
27 32 40 49 50 51 51 46 36 35 35 33 27 28 38 42 31 29 33 49 74 76 79 91 82 85 78 72 63 54 46 39 37 45 64 69 74 65
25 29 35 44 44 48 50 48 47 50 53 49 43 41 35 34 23 26 40 55 63 79 82 94 91 88 61 80 70 63 53 37 42 46 51 70 75 64
27 26 31 43 42 43 42 41 47 46 49 46 49 46 51 41 32 33 42 52 64 82 87 100 91 92 72 74 73 60 51 28 27 33 36 52 78 73
25 27 33 38 38 42 36 37 37 40 42 45 52 57 54 48 43 42 52 64 70 74 91 82 84 84 76 57 61 58 44 13 20 31 31 30 54 69
23 27 31 35 37 38 33 39 38 43 45 46 52 54 48 47 51 58 63 75 82 76 84 79 78 74 58 47 58 48 41 25 13 33 26 21 39 62
19 26 33 31 34 34 35 37 38 45 50 46 47 43 46 54 62 69 77 88 86 83 72 86 86 65 66 52 57 49 33 20 8 26 23 23 24 35
22 29 31 37 41 43 43 40 40 46 57 49 40 44 50 58 65 71 77 85 82 83 93 82 90 72 61 46 67 57 33 20 8 16 24 31 40 42
24 32 35 40 46 48 49 44 44 47 56 47 37 43 49 59 68 74 79 83 80 84 88 74 86 93 80 51 64 71 41 26 7 4 14 25 33 59
19 28 34 39 43 45 48 44 46 49 53 35 37 43 48 57 67 73 79 82 75 76 84 74 72 84 75 62 60 74 59 30 11 19 19 8 12 26
20 24 34 40 42 43 45 42 42 49 48 30 33 39 46 56 67 71 72 76 70 73 82 78 69 65 69 68 59 51 65 45 37 33 31 15 18 19
21 19 26 34 37 38 40 36 38 45 43 34 31 40 45 52 62 67 67 70 69 69 69 72 64 56 59 65 69 62 65 69 51 38 35 19 23 21
18 13 22 30 34 37 37 34 35 37 39 39 31 40 45 46 58 64 63 66 65 62 60 63 61 64 67 62 65 68 52 55 65 53 40 43 27 14
19 14 21 32 37 39 36 33 33 32 34 37 35 41 48 45 51 56 57 61 58 69 50 66 60 59 66 59 54 57 65 52 43 59 64 49 34 26
Wind_Direction_500mb
324 324 323 327 323 320 322 319 318 319 312 314 312 305 298 301 307 307 302 298 299 300 300 302 295 289 285 286 291 283 278 276 273 271 265 260 257 256
311 310 313 316 318 315 317 315 311 314 314 314 315 314 313 309 304 301 301 301 300 301 304 302 298 291 291 290 289 286 282 275 276 274 268 261 257 254
310 317 317 315 317 317 317 317 317 318 315 309 312 317 317 316 315 317 315 312 315 313 313 312 295 293 300 300 290 288 289 277 270 271 274 265 259 255
319 325 321 322 321 322 321 321 322 324 322 317 316 318 322 322 329 326 323 318 319 319 323 312 306 289 293 302 297 293 287 281 275 273 274 268 261 257
333 336 334 326 324 328 334 330 325 323 324 324 323 323 324 327 326 329 325 318 312 313 310 316 301 297 279 288 290 296 286 281 275 273 274 270 261 255
344 343 338 336 337 335 331 323 319 320 319 320 327 324 323 326 323 330 328 328 319 318 318 321 321 304 288 288 292 293 282 275 274 260 265 272 266 252
346 339 335 336 334 331 329 329 327 327 330 328 328 328 329 331 332 330 329 332 332 334 340 321 313 305 297 283 286 296 297 291 265 264 256 266 263 256
342 332 331 331 337 337 341 344 340 334 331 333 327 335 343 346 346 349 342 338 331 330 329 321 321 312 312 302 293 291 291 288 283 255 254 244 259 251
335 332 334 338 346 345 342 343 356 5 336 332 335 348 352 8 355 345 344 337 333 328 330 319 321 317 320 303 301 295 292 288 273 253 249 242 239 244
332 337 344 353 351 355 355 358 10 9 11 5 5 1 2 353 341 331 335 336 333 332 338 320 323 315 318 307 300 292 290 285 269 255 237 231 233 236
347 11 5 359 3 11 17 21 19 20 13 10 0 349 342 348 354 343 344 344 339 339 340 328 330 330 328 318 317 312 298 282 263 251 242 229 224 229
26 3 9 10 9 12 13 10 10 5 355 349 359 2 357 3 353 356 360 349 345 341 347 334 332 330 313 319 317 316 310 288 265 253 236 233 220 220
24 25 20 19 16 13 10 11 8 5 2 5 8 6 5 1 12 13 6 356 348 351 352 346 330 331 317 307 322 326 326 305 260 235 229 230 224 219
32 19 17 25 16 14 15 11 4 5 7 7 8 5 7 11 9 7 8 6 355 342 348 353 343 338 334 333 333 341 339 317 258 214 208 208 213 215
33 20 24 18 7 8 12 6 5 7 9 10 8 8 16 18 20 17 16 12 6 357 354 359 1 356 357 345 351 342 341 344 262 202 201 197 203 199
34 24 13 14 13 7 6 6 7 12 11 10 14 21 19 23 26 21 15 10 2 356 8 11 9 5 3 349 354 358 358 340 14 191 201 199 195 197
22 15 16 14 12 11 12 10 8 11 9 10 24 22 23 21 23 20 16 9 3 359 3 4 12 16 17 1 8 6 2 8 91 176 212 218 221 215
12 11 10 9 8 7 9 9 10 11 8 8 22 21 22 21 17 19 17 9 7 6 7 8 13 16 16 12 10 9 11 17 49 187 221 238 237 223
6 4 14 10 9 7 10 10 9 5 5 16 19 19 21 22 19 17 13 9 9 9 12 12 10 18 8 0 18 12 14 24 33 39 44 201 192 206
5 14 6 5 3 3 4 6 4 3 7 17 18 18 21 20 19 17 13 12 8 9 9 13 16 18 17 9 6 21 21 27 17 17 20 29 171 181
3 26 3 353 353 351 355 1 2 5 13 15 19 20 19 18 20 18 13 14 10 13 12 13 18 19 21 29 28 31 27 28 24 21 16 48 123 136
1 19 359 335 343 345 354 358 7 12 23 28 29 23 19 20 19 17 14 13 13 14 11 9 14 23 27 35 31 29 36 31 26 34 36 49 68 79
350 7 339 330 343 351 356 1 11 17 21 26 26 25 20 18 20 18 16 14 14 15 15 10 9 10 24 28 35 40 34 36 23 28 38 39 42 53
Wind_Speed_850mb
33 37 42 42 45 48 44 44 55 60 63 43 46 52 51 61 67 70 66 63 65 71 77 78 70 63 63 61 58 55 57 55 55 53 57 61 63 65
42 46 47 45 44 45 46 53 57 51 65 66 67 68 66 64 63 63 64 70 71 67 55 52 47 47 48 55 57 52 55 58 55 55 52 55 61 63
42 48 44 46 49 52 53 53 51 55 60 73 70 63 70 67 61 55 51 54 53 52 52 43 36 40 44 50 53 49 46 52 60 60 59 58 59 62
48 40 36 40 47 51 57 61 60 53 53 71 73 78 70 65 60 57 55 51 55 48 52 50 44 46 38 34 34 43 47 43 41 46 51 53 58 60
32 32 40 50 56 57 54 60 63 65 69 68 69 66 64 60 59 52 55 57 48 55 52 48 43 37 38 36 36 35 37 38 41 44 45 48 50 56
26 30 39 47 51 58 59 62 63 61 59 61 61 67 70 63 53 54 54 49 53 47 41 42 39 39 40 41 42 45 44 43 39 43 46 46 54 57
23 30 40 45 46 48 57 59 58 57 53 49 53 59 60 57 50 45 52 54 51 51 49 52 55 54 53 57 63 64 65 55 57 47 45 47 46 48
31 38 38 46 47 42 44 48 45 42 37 38 46 54 45 39 40 44 46 54 62 53 57 66 60 61 63 64 77 90 93 87 77 70 62 47 50 49
33 36 41 48 51 53 50 47 40 29 27 34 42 44 41 41 44 48 42 50 56 62 68 77 73 75 81 78 81 78 75 71 66 78 74 70 59 51
35 37 39 44 60 58 54 41 32 34 33 33 34 33 33 37 42 44 46 53 61 69 73 70 77 89 86 70 65 67 64 60 54 63 74 79 71 59
27 32 40 49 50 51 51 46 36 35 35 33 27 28 38 42 31 29 33 49 74 76 79 91 82 85 78 72 63 54 46 39 37 45 64 69 74 65
25 29 35 44 44 48 50 48 47 50 53 49 43 41 35 34 23 26 40 55 63 79 82 94 91 88 61 80 70 63 53 37 42 46 51 70 75 64
27 26 31 43 42 43 42 41 47 46 49 46 49 46 51 41 32 33 42 52 64 82 87 100 91 92 72 74 73 60 51 28 27 33 36 52 78 73
25 27 33 38 38 42 36 37 37 40 42 45 52 57 54 48 43 42 52 64 70 74 91 82 84 84 76 57 61 58 44 13 20 31 31 30 54 69
23 27 31 35 37 38 33 39 38 43 45 46 52 54 48 47 51 58 63 75 82 76 84 79 78 74 58 47 58 48 41 25 13 33 26 21 39 62
19 26 33 31 34 34 35 37 38 45 50 46 47 43 46 54 62 69 77 88 86 83 72 86 86 65 66 52 57 49 33 20 8 26 23 23 24 35
22 29 31 37 41 43 43 40 40 46 57 49 40 44 50 58 65 71 77 85 82 83 93 82 90 72 61 46 67 57 33 20 8 16 24 31 40 42
24 32 35 40 46 48 49 44 44 47 56 47 37 43 49 59 68 74 79 83 80 84 88 74 86 93 80 51 64 71 41 26 7 4 14 25 33 59
19 28 34 39 43 45 48 44 46 49 53 35 37 43 48 57 67 73 79 82 75 76 84 74 72 84 75 62 60 74 59 30 11 19 19 8 12 26
20 24 34 40 42 43 45 42 42 49 48 30 33 39 46 56 67 71 72 76 70 73 82 78 69 65 69 68 59 51 65 45 37 33 31 15 18 19
21 19 26 34 37 38 40 36 38 45 43 34 31 40 45 52 62 67 67 70 69 69 69 72 64 56 59 65 69 62 65 69 51 38 35 19 23 21
18 13 22 30 34 37 37 34 35 37 39 39 31 40 45 46 58 64 63 66 65 62 60 63 61 64 67 62 65 68 52 55 65 53 40 43 27 14
19 14 21 32 37 39 36 33 33 32 34 37 35 41 48 45 51 56 57 61 58 69 50 66 60 59 66 59 54 57 65 52 43 59 64 49 34 26
Wind_Direction_850mb
324 324 323 327 323 320 322 319 318 319 312 314 312 305 298 301 307 307 302 298 299 300 300 302 295 289 285 286 291 283 278 276 273 271 265 260 257 256
311 310 313 316 318 315 317 315 311 314 314 314 315 314 313 309 304 301 301 301 300 301 304 302 298 291 291 290 289 286 282 275 276 274 268 261 257 254
310 317 317 315 317 317 317 317 317 318 315 309 312 317 317 316 315 317 315 312 315 313 313 312 295 293 300 300 290 288 289 277 270 271 274 265 259 255
319 325 321 322 321 322 321 321 322 324 322 317 316 318 322 322 329 326 323 318 319 319 323 312 306 289 293 302 297 293 287 281 275 273 274 268 261 257
333 336 334 326 324 328 334 330 325 323 324 324 323 323 324 327 326 329 325 318 312 313 310 316 301 297 279 288 290 296 286 281 275 273 274 270 261 255
344 343 338 336 337 335 331 323 319 320 319 320 327 324 323 326 323 330 328 328 319 318 318 321 321 304 288 288 292 293 282 275 274 260 265 272 266 252
346 339 335 336 334 331 329 329 327 327 330 328 328 328 329 331 332 330 329 332 332 334 340 321 313 305 297 283 286 296 297 291 265 264 256 266 263 256
342 332 331 331 337 337 341 344 340 334 331 333 327 335 343 346 346 349 342 338 331 330 329 321 321 312 312 302 293 291 291 288 283 255 254 244 259 251
335 332 334 338 346 345 342 343 356 5 336 332 335 348 352 8 355 345 344 337 333 328 330 319 321 317 320 303 301 295 292 288 273 253 249 242 239 244
332 337 344 353 351 355 355 358 10 9 11 5 5 1 2 353 341 331 335 336 333 332 338 320 323 315 318 307 300 292 290 285 269 255 237 231 233 236
347 11 5 359 3 11 17 21 19 20 13 10 0 349 342 348 354 343 344 344 339 339 340 328 330 330 328 318 317 312 298 282 263 251 242 229 224 229
26 3 9 10 9 12 13 10 10 5 355 349 359 2 357 3 353 356 360 349 345 341 347 334 332 330 313 319 317 316 310 288 265 253 236 233 220 220
24 25 20 19 16 13 10 11 8 5 2 5 8 6 5 1 12 13 6 356 348 351 352 346 330 331 317 307 322 326 326 305 260 235 229 230 224 219
32 19 17 25 16 14 15 11 4 5 7 7 8 5 7 11 9 7 8 6 355 342 348 353 343 338 334 333 333 341 339 317 258 214 208 208 213 215
33 20 24 18 7 8 12 6 5 7 9 10 8 8 16 18 20 17 16 12 6 357 354 359 1 356 357 345 351 342 341 344 262 202 201 197 203 199
34 24 13 14 13 7 6 6 7 12 11 10 14 21 19 23 26 21 15 10 2 356 8 11 9 5 3 349 354 358 358 340 14 191 201 199 195 197
22 15 16 14 12 11 12 10 8 11 9 10 24 22 23 21 23 20 16 9 3 359 3 4 12 16 17 1 8 6 2 8 91 176 212 218 221 215
12 11 10 9 8 7 9 9 10 11 8 8 22 21 22 21 17 19 17 9 7 6 7 8 13 16 16 12 10 9 11 17 49 187 221 238 237 223
6 4 14 10 9 7 10 10 9 5 5 16 19 19 21 22 19 17 13 9 9 9 12 12 10 18 8 0 18 12 14 24 33 39 44 201 192 206
5 14 6 5 3 3 4 6 4 3 7 17 18 18 21 20 19 17 13 12 8 9 9 13 16 18 17 9 6 21 21 27 17 17 20 29 171 181
3 26 3 353 353 351 355 1 2 5 13 15 19 20 19 18 20 18 13 14 10 13 12 13 18 19 21 29 28 31 27 28 24 21 16 48 123 136
1 19 359 335 343 345 354 358 7 12 23 28 29 23 19 20 19 17 14 13 13 14 11 9 14 23 27 35 31 29 36 31 26 34 36 49 68 79
350 7 339 330 343 351 356 1 11 17 21 26 26 25 20 18 20 18 16 14 14 15 15 10 9 10 24 28 35 40 34 36 23 28 38 39 42 53